Home   Weather   Burbank   Past weeks

Flag for USA Past Weather in Burbank, California, USA — Yesterday and Last 2 Weeks

Now
46 °F

Clear.


Feels Like: 44 °F
Forecast: 46 / 71 °F
Wind: 5 mph from West

Location: Bob Hope Airport

Current Time: Dec 4, 2016 at 6:23:00 am

Latest Report: Dec 4, 2016 at 5:53 am


Visibility: 10 mi

Pressure: 30.04 "Hg

Humidity: 40%

Dew Point: 23 °F

Location of BurbankLocation

Past Weather in Burbank — Graph

°F

Burbank Temperature Yesterday

Maximum temperature yesterday: 66 °F (at 1:53 pm)
Minimum temperature yesterday: 45 °F (at 5:53 am)
Average temperature yesterday: 56 °F

High & Low Weather Summary for the Past Weeks

 TemperatureHumidityPressure
High76 °F (Nov 25, 1:53 pm)97% (Nov 20, 6:53 pm)30.16 "Hg (Nov 20, 6:53 pm)
Low40 °F (Nov 26, 6:53 am)7% (Dec 3, 2:53 am)29.79 "Hg (Nov 28, 3:53 pm)
Average56 °F48%30.00 "Hg
* Reported Nov 19 4:53 am — Dec 4 4:53 am, Burbank, Weather by CustomWeather, © 2016

Note: Actual official high and low records may vary slightly from our data, if they occured in-between our weather recording intervals... More about our weather records

Advertising

Burbank Weather History for the Previous 24 Hours

Scroll right to see more
 ConditionsComfort  
Time TempWeatherWind HumidityBarometerVisibility
4:53 am
Sun, Dec 4
44 °FClear.6 mph47%30.03 "Hg10 mi
3:53 am44 °FClear.No wind47%30.02 "Hg10 mi
2:53 am45 °FClear.No wind45%30.03 "Hg10 mi
1:53 am46 °FClear.6 mph44%30.04 "Hg10 mi
12:53 am47 °FClear.5 mph42%30.03 "Hg10 mi
11:53 pm
Sat, Dec 3
50 °FClear.No wind35%30.03 "Hg10 mi
10:53 pm51 °FClear.3 mph32%30.04 "Hg10 mi
9:53 pm50 °FClear.No wind39%30.04 "Hg10 mi
8:53 pm51 °FClear.6 mph38%30.03 "Hg10 mi
7:53 pm53 °FClear.3 mph31%30.03 "Hg10 mi
6:53 pm55 °FClear.3 mph35%30.03 "Hg10 mi
5:53 pm58 °FClear.3 mph31%30.03 "Hg10 mi
4:53 pm62 °FClear.3 mph25%30.02 "Hg10 mi
3:53 pm65 °FSunny.5 mph23%30.01 "Hg10 mi
2:53 pm66 °FSunny.6 mph14%30.01 "Hg10 mi
1:53 pm66 °FSunny.3 mph14%30.02 "Hg10 mi
12:53 pm64 °FSunny.6 mph13%30.03 "Hg10 mi
11:53 am63 °FSunny.10 mph13%30.06 "Hg10 mi
10:53 am61 °FSunny.6 mph14%30.09 "Hg10 mi
9:53 am59 °FSunny.7 mph15%30.11 "Hg10 mi
8:53 am56 °FSunny.No wind16%30.11 "Hg10 mi
7:53 am50 °FSunny.No wind24%30.09 "Hg10 mi
6:53 am49 °FSunny.7 mph21%30.07 "Hg10 mi
Weather by CustomWeather, © 2016

See weather overviewHow to use our weather pages